Weather History for Rawlins, WY

Change the Weather History Date:

Sunday, April 7, 2013

  Actual Average Record
Temperature  
Mean Temperature 42 °F 38 °F  
Max Temperature 51 °F 51 °F 70 °F (1988)
Min Temperature 32 °F 25 °F 3 °F (1973)
Degree Days  
Heating Degree Days 23 27  
Month to date heating degree days 160 195  
Since 1 July heating degree days 6753 7167  
Cooling Degree Days 0 0  
Month to date cooling degree days 0 0  
Year to date cooling degree days 0 0  
Moisture  
Dew Point 30 °F    
Average Humidity 65    
Maximum Humidity 89    
Minimum Humidity 41    
Precipitation  
Precipitation 0.03 in 0.04 in 0.24 in (1973)
Month to date precipitation 0.03 0.22  
Year to date precipitation 0.71 1.68  
Sea Level Pressure  
Sea Level Pressure 29.74 in    
Wind  
Wind Speed 19 mph (WSW)    
Max Wind Speed 36 mph    
Max Gust Speed 45 mph    
Visibility 9 miles    
Events Rain    
T = Trace of Precipitation, MM = Missing Value Source: NWS Daily Summary

Daily Weather History Graph

Daily Weather History Graph

Search for Another Location

Airport:

Trip Planner

Search our weather history database for the weather conditions in past years. The results will help you decide how hot, cold, wet, or windy it might be!

Date:

Astronomy

Apr. 07, 2013 Rise Set
Actual Time 6:41 AM MDT 7:41 PM MDT
Civil Twilight 6:12 AM MDT 8:09 PM MDT
Nautical Twilight 5:38 AM MDT 8:43 PM MDT
Astronomical Twilight 5:03 AM MDT 9:19 PM MDT
Moon 5:02 AM MDT (4/7) 5:14 PM MDT (4/7)
Length of Visible Light 13h 57m
Length of Day
13h 00m
Waning Crescent, 8% of the Moon is Illuminated
Apr 7
Waning Crescent
Apr 10
New
Apr 18
First Quarter
Apr 25
Full
May 2
Last Quarter

Hourly Weather History & Observations

Time (MDT) Temp. Windchill Dew Point Humidity Pressure Visibility Wind Dir Wind Speed Gust Speed Precip Events Conditions
12:53 AM 36.0 °F 26.7 °F 30.9 °F 82% 29.82 in 10.0 mi WSW 15.0 mph - N/A   Clear
1:53 AM 36.0 °F 26.3 °F 30.0 °F 79% 29.80 in 10.0 mi WSW 16.1 mph 25.3 mph N/A   Clear
2:53 AM 34.0 °F 23.0 °F 30.0 °F 85% 29.79 in 10.0 mi WSW 18.4 mph 26.5 mph N/A   Clear
3:53 AM 34.0 °F 23.4 °F 30.0 °F 85% 29.76 in 10.0 mi WSW 17.3 mph 26.5 mph N/A   Clear
4:53 AM 35.1 °F 25.2 °F 28.9 °F 78% 29.76 in 10.0 mi WSW 16.1 mph - N/A   Scattered Clouds
5:53 AM 34.0 °F 23.4 °F 28.9 °F 82% 29.77 in 10.0 mi WSW 17.3 mph 23.0 mph N/A   Clear
6:53 AM 33.1 °F 21.9 °F 28.0 °F 82% 29.78 in 10.0 mi WSW 18.4 mph 24.2 mph N/A   Clear
7:53 AM 37.0 °F 27.4 °F 28.9 °F 73% 29.79 in 10.0 mi WSW 17.3 mph 23.0 mph N/A   Clear
8:53 AM 39.9 °F 31.1 °F 28.9 °F 65% 29.78 in 10.0 mi WSW 17.3 mph - N/A   Clear
9:53 AM 44.1 °F 35.0 °F 28.0 °F 53% 29.73 in 10.0 mi SW 24.2 mph 31.1 mph N/A   Clear
10:53 AM 45.0 °F 35.6 °F 26.1 °F 48% 29.75 in 10.0 mi SW 27.6 mph 35.7 mph N/A   Scattered Clouds
11:33 AM 37.4 °F 28.2 °F 32.0 °F 81% 29.85 in 2.5 mi WSW 16.1 mph 38.0 mph 0.01 in Rain Heavy Rain
11:37 AM 37.4 °F 27.8 °F 33.8 °F 87% 29.85 in 3.0 mi WSW 17.3 mph 27.6 mph 0.01 in Rain Light Rain
11:45 AM 41.0 °F 31.9 °F 35.6 °F 81% 29.84 in 10.0 mi SW 19.6 mph 26.5 mph 0.01 in   Overcast
11:53 AM 42.1 °F 33.3 °F 34.0 °F 73% 29.76 in 10.0 mi WSW 19.6 mph 26.5 mph 0.01 in   Overcast
12:53 PM 42.1 °F 30.8 °F 32.0 °F 67% 29.77 in 8.0 mi SW 33.4 mph 39.1 mph 0.00 in Rain Light Rain
1:25 PM 39.2 °F 27.8 °F 35.6 °F 87% 29.82 in 9.0 mi WSW 27.6 mph 39.1 mph 0.01 in Rain Light Rain
1:53 PM 41.0 °F 31.4 °F 36.0 °F 82% 29.73 in 10.0 mi WSW 21.9 mph - 0.01 in   Mostly Cloudy
2:04 PM 44.6 °F 36.1 °F 35.6 °F 71% 29.78 in 10.0 mi WSW 21.9 mph 28.8 mph N/A   Scattered Clouds
2:53 PM 46.0 °F 38.0 °F 34.0 °F 63% 29.68 in 10.0 mi WSW 21.9 mph 35.7 mph 0.01 in Rain Light Rain
3:53 PM 48.0 °F - 26.1 °F 42% 29.64 in 10.0 mi WSW 34.5 mph 40.3 mph 0.00 in   Clear
4:53 PM 48.0 °F - 28.0 °F 46% 29.63 in 10.0 mi SW 26.5 mph 34.5 mph N/A   Mostly Cloudy
5:53 PM 46.0 °F 38.3 °F 30.0 °F 54% 29.65 in 10.0 mi SW 20.7 mph 29.9 mph N/A   Mostly Cloudy
6:53 PM 46.0 °F 39.6 °F 30.0 °F 54% 29.64 in 10.0 mi WSW 15.0 mph 23.0 mph 0.00 in   Overcast
7:53 PM 45.0 °F 36.6 °F 23.0 °F 42% 29.62 in 10.0 mi West 21.9 mph 32.2 mph N/A   Mostly Cloudy
8:53 PM 43.0 °F 36.4 °F 25.0 °F 49% 29.62 in 10.0 mi West 12.7 mph - N/A   Overcast
9:53 PM 39.9 °F 31.4 °F 25.0 °F 55% 29.63 in 10.0 mi West 16.1 mph - N/A   Scattered Clouds
10:53 PM 36.0 °F 28.0 °F 26.1 °F 67% 29.63 in 10.0 mi WSW 11.5 mph - N/A   Clear
11:53 PM 33.1 °F 28.7 °F 25.0 °F 72% 29.66 in 10.0 mi WNW 4.6 mph - N/A   Partly Cloudy